Location: Newark
(40.3500°N, 15.2333°E)
Time: 04:30:34
(UTC+00:00)

Altair - Pass Details

Date: 18 January 2020
Orbit: 1502 x 1682 km, 47.2° (Epoch: 19 February)

Event Time Altitude Azimuth Distance (km) Brightness Sun altitude
Rises 14:54:46 0° 297° (WNW) 4,926 10.5 9.7°
Reaches altitude 10° 14:57:57 10° 297° (WNW) 3,925 10.0 9.2°
Maximum altitude 15:08:03 87° 211° (SSW) 1,636 7.9 7.6°
Drops below altitude 10° 15:17:46 10° 123° (ESE) 3,784 9.4 6.1°
Sets 15:20:47 0° 123° (ESE) 4,743 9.8 5.6°
